Regional Weather Roundup
Issued by NWS

Home | Current Version | Previous Version | Text Only | Print | Product List | Glossary On
Versions: 1 2 3 4 5 6 7 8 9 10 11 12 13 14 15 16 17 18 19 20 21 22 23 24 25 26 27 28 29 30 31 32 33 34 35 36 37 38 39 40 41 42 43 44 45 46 47 48 49 50
000
ASUS43 KMPX 310710
RWRMN
WEATHER ROUNDUP FOR MINNESOTA
NATIONAL WEATHER SERVICE TWIN CITIES/CHANHASSEN MN
200 AM CDT WED AUG 31 2016


NOTE: "FAIR" INDICATES FEW OR NO CLOUDS BELOW 12,000 FEET WITH NO
SIGNIFICANT WEATHER AND/OR OBSTRUCTIONS TO VISIBILITY. N/A MEANS
CURRENT SKY AND/OR WEATHER CONDITIONS ARE NOT AVAILABLE.

MNZ060>063-068>070-310800-
   Twin Cities Metro

CITY           SKY/WX    TMP DP  RH WIND       PRES   REMARKS
TWIN CITIES    CLEAR     63  54  72 N3        30.18S
ST PAUL        CLEAR     63  56  78 CALM      30.19R
CRYSTAL        CLEAR     59  52  77 CALM      30.18S
BLAINE         CLEAR     61  55  82 CALM      30.18F
LAKEVILLE      CLEAR     59  55  88 CALM      30.19R
EDEN PRAIRIE   CLEAR     62  55  77 N5        30.18R
LAKEVILLE      CLEAR     59  55  88 CALM      30.19R
SOUTH ST PAUL  CLEAR     63  55  75 N3        30.18S
LAKE ELMO      FAIR      55  55 100 CALM      30.19S
$$
MNZ001>005-007-008-013>017-022>024-027-028-310800-
   Northwest Minnesota

CITY           SKY/WX    TMP DP  RH WIND       PRES   REMARKS
BEMIDJI        CLOUDY    48  48  98 W3        30.23R
HALLOCK        CLEAR     52  46  82 NW3       30.24S
ROSEAU         CLEAR     52  46  82 CALM      30.24S
WARROAD        CLEAR     54  48  82 NW3       30.24S
THIEF RVR FALL PTCLDY    57  51  80 NE5       30.24S
CROOKSTON      CLEAR     57  52  82 NE5       30.24S
FOSSTON        CLOUDY    48  46  93 CALM      30.24S
DETROIT LAKES  CLEAR     59  55  88 CALM      30.24S
MOORHEAD       CLEAR     55  54  94 CALM      30.23R
MAHNOMEN       FAIR      55  53  94 CALM      30.23S
$$
MNZ006-009>011-018-025>026-310800-
   North Central Minnesota

CITY           SKY/WX    TMP DP  RH WIND       PRES   REMARKS
BAUDETTE       PTCLDY    49  48  97 W3        30.22R
FLAG ISLAND    CLEAR     61  54  77 CALM      30.22S HAZE
INTL FALLS     PTCLDY    43  41  93 CALM      30.20S
WASKISH        PTCLDY    48  48 100 CALM      30.22S FOG
BIG FORK       PTCLDY    46  45  93 CALM      30.21F
LONGVILLE      CLEAR     50  50 100 CALM      30.21S FOG
GRAND RAPIDS   CLEAR     50  50 100 CALM      30.22F FOG
CRANE LAKE     PTCLDY    46  45  93 CALM      30.21S
ORR            PTCLDY    48  46  93 CALM      30.18S
COOK           PTCLDY    46  46 100 CALM      30.21S
WALKER         FAIR      52  51  96 CALM      30.22S
$$
MNZ012-019>021-037-310800-
   Northeast Minnesota

CITY           SKY/WX    TMP DP  RH WIND       PRES   REMARKS
DULUTH         CLEAR     54  50  86 N5        30.19S
ELY            CLEAR     46  46 100 CALM      30.19S
HIBBING        CLEAR     44  44 100 CALM      30.20S
EVELETH        CLEAR     50  48  93 CALM      30.21S
DULUTH HARBOR  PTCLDY    64  55  72 NW9       30.18S
TWO HARBORS    CLEAR     57  52  82 CALM      30.16S
SILVER BAY     CLEAR     50  48  93 CALM      30.17R
GRAND MARAIS     N/A     60  51  72 N8        30.14S
G MARAIS ARPRT CLEAR     48  45  87 NW3       30.18S
$$
MNZ029>031-032-039>041-046>048-054>057-064-310800-
   West Central Minnesota

CITY           SKY/WX    TMP DP  RH WIND       PRES   REMARKS
FERGUS FALLS   CLEAR     61  55  82 NE3       30.23S
WHEATON        CLEAR     57  55  94 CALM      30.23S
MORRIS         CLEAR     59  55  88 NE5       30.20S
ALEXANDRIA     CLEAR     61  55  81 NE6       30.23S
ELBOW LAKE     FAIR      64  57  80 CALM      30.22S
WADENA         CLEAR     54  54 100 CALM      30.22S
GLENWOOD       CLEAR     61  55  82 N6        30.23R
APPLETON       CLEAR     59  55  88 NW3       30.21R
BENSON         CLEAR     55  52  88 CALM      30.21S
ORTONVILLE     CLEAR     61  55  82 CALM      30.21S
MADISON        PTCLDY    61  57  88 CALM      30.21S
WILLMAR        FAIR      63  57  82 NE3       30.22S
$$
MNZ033>034-036-042>043-049>051-058-059-310800-
   Central Minnesota

CITY           SKY/WX    TMP DP  RH WIND       PRES   REMARKS
ST CLOUD       CLEAR     56  55  97 CALM      30.20S
SAUK CENTRE    FAIR      57  54  92 CALM      30.22S
PAYNESVILLE    CLEAR     56  56 100 CALM      30.22S
AITKIN           N/A     52  46  82 CALM      30.20S FOG
PINE RIVER     CLEAR     52  52 100 CALM      30.25S
BRAINERD       CLEAR     54  53  97 CALM      30.22S FOG
STAPLES        CLEAR     54  54 100 CALM      30.22F
LONG PRAIRIE   FAIR      55  54  94 CALM      30.22S
LITTLE FALLS     N/A     54  52  94 CALM      30.21S FOG
LITCHFIELD     CLEAR     63  59  88 CALM      30.21S
BUFFALO        CLEAR     60  54  82 CALM      30.21R
MAPLE LAKE     CLEAR     58  57  97 CALM      30.21S
HUTCHINSON     PTCLDY    59  57  92 CALM      30.21S
$$
MNZ037-044-045-052-053-310800-
   East Central Minnesota

CITY           SKY/WX    TMP DP  RH WIND       PRES   REMARKS
PRINCETON      CLEAR     54  54 100 CALM      30.20S
MORA           CLEAR     54  52  94 CALM      30.22R
CAMBRIDGE      CLEAR     55  50  82 CALM      30.18S
RUSH CITY      MOCLDY    54  53  94 CALM      30.19S
MOOSE LAKE     CLEAR     50  48  93 CALM      30.18S
HINCKLEY       FAIR      54  54 100 CALM      30.19S
CLOQUET        CLEAR     52  48  87 NW5       30.20S
MCGREGOR       CLEAR     52  50  93 CALM      30.21S
$$
MNZ071>073-080-081-089-090-097-098-310800-
   Southwest Minnesota

CITY           SKY/WX    TMP DP  RH WIND       PRES   REMARKS
MONTEVIDEO     CLEAR     61  54  77 N5        30.22S
GRANITE FALLS  CLEAR     58  57  95 W3        30.22S
CANBY          PTCLDY    58  56  93 CALM      30.23R
MARSHALL       CLEAR     57  55  93 W6        30.21S
REDWOOD FALLS  CLEAR     61  58  90 NW5       30.19S
OLIVIA         CLEAR     59  54  82 N3        30.19S
WINDOM         CLEAR     57  55  94 CALM      30.21S
WORTHINGTON    CLEAR     57  56  96 W3        30.23R
JACKSON        CLOUDY    57  55  94 CALM      30.22R
TRACY          CLEAR     61  57  86 CALM      30.23R
SLAYTON        PTCLDY    55  55 100 NW5       30.23S
$$
MNZ065>067-074>077-082>085-091>093-310800-
   South Central Minnesota

CITY           SKY/WX    TMP DP  RH WIND       PRES   REMARKS
NEW ULM        CLEAR     61  57  88 CALM      30.19S
ST JAMES       CLEAR     59  57  94 CALM      30.21R
FAIRMONT       CLOUDY    58  55  90 CALM      30.20S
GLENCOE        CLEAR     62  60  92 CALM      30.19S
FARIBAULT      CLEAR     55  54  94 CALM      30.19S
OWATONNA       CLEAR     54  52  94 CALM      30.20R
WASECA         CLEAR     55  54  94 CALM      30.21R
ALBERT LEA     CLOUDY    57  55  94 CALM      30.19S
$$
MNZ078>079-086>088-094>096-310800-
   Southeast Minnesota

CITY           SKY/WX    TMP DP  RH WIND       PRES   REMARKS
ROCHESTER      CLOUDY    59  57  93 NW8       30.19R
RED WING       CLEAR     59  55  88 CALM      30.17R
STANTON        CLEAR     55  54  94 CALM      30.18R
DODGE CENTER   PTCLDY    57  54  88 N5        30.19S
WINONA         CLEAR     61  59  94 CALM      30.16S
AUSTIN         CLOUDY    57  55  94 N3        30.18S
PRESTON        CLOUDY    60  55  84 NW3       30.18S
$$
ABBREVIATIONS USED IN REMARKS
   TC - TEMPERATURES IN CELSIUS
  WCI - WIND CHILL INDEX
   HX - HEAT INDEX
  VSB - VISIBILITY
$$




USA.gov is the U.S. government's official web portal to all federal, state and local government web resources and services.